Fitchburg, MA

10:32 PM EST on December 13, 2019 (GMT -0500)
Fitchburg Municipal

Weather History for KFIT - August, 2019

Change the Weather History Date:

Friday, August 23, 2019

  Actual Average (KORH) Record (KORH)
Temperature  
Mean Temperature 68 °F -  
Max Temperature 78 °F 74 °F 94 °F (1916)
Min Temperature 59 °F 56 °F 44 °F (1925)
Cooling Degree Days 4    
Growing Degree Days 18 (Base 50)    
Moisture  
Dew Point 54 °F    
Average Humidity 57    
Maximum Humidity 72    
Minimum Humidity 42    
Precipitation  
Precipitation 0.00 in - - ()
Sea Level Pressure  
Sea Level Pressure 29.98 in    
Wind  
Wind Speed 5 mph ()    
Max Wind Speed 9 mph    
Max Gust Speed -    
Visibility 10.0 miles    
Events      
Averages and records for this station are not official NWS values.
T = Trace of Precipitation, MM = Missing Value Source: Averaged Metar Reports

Daily Weather History Graph

Daily Weather History Graph

Search for Another Location

Airport or City:

Astronomy

Aug. 23, 2019 Rise Set
Actual Time 6:02 AM EDT 7:36 PM EDT
Civil Twilight 5:32 AM EDT 8:06 PM EDT
Nautical Twilight 4:56 AM EDT 8:41 PM EDT
Astronomical Twilight 4:18 AM EDT 9:20 PM EDT
Moon 11:51 PM EDT (8/23) 1:45 PM EDT (8/23)
Length of Visible Light 14h 33m
Length of Day
13h 34m
Waning Gibbous, 50% of the Moon is Illuminated
Aug 23
Waning Gibbous
Aug 30
New
Sep 5
First Quarter
Sep 14
Full
Sep 21
Last Quarter

Hourly Weather History & Observations

Time (EDT) Temp. Dew Point Humidity Pressure Visibility Wind Dir Wind Speed Gust Speed Precip Events Conditions
12:52 AM 72.0 °F 55.0 °F 55% 29.91 in 10.0 mi NNW 8.1 mph - N/A   Overcast
1:52 AM 71.1 °F 54.0 °F 55% 29.91 in 10.0 mi NNW 6.9 mph - N/A   Overcast
2:52 AM 70.0 °F 53.1 °F 55% 29.92 in 10.0 mi Variable 3.5 mph - N/A   Overcast
3:52 AM 69.1 °F 53.1 °F 57% 29.91 in 10.0 mi NNW 3.5 mph - N/A   Overcast
4:52 AM 66.9 °F 54.0 °F 63% 29.92 in 10.0 mi NW 5.8 mph - N/A   Overcast
5:52 AM 66.9 °F 54.0 °F 63% 29.94 in 10.0 mi NW 5.8 mph - N/A   Overcast
6:52 AM 66.0 °F 55.0 °F 68% 29.96 in 10.0 mi WNW 6.9 mph - N/A   Clear
7:52 AM 66.9 °F 55.9 °F 68% 29.97 in 10.0 mi NNW 3.5 mph - N/A   Mostly Cloudy
8:52 AM 69.1 °F 55.9 °F 63% 29.98 in 10.0 mi Calm Calm - N/A   Partly Cloudy
9:52 AM 73.9 °F 57.0 °F 55% 29.99 in 10.0 mi Calm Calm - N/A   Clear
10:52 AM 75.9 °F 51.1 °F 42% 29.99 in 10.0 mi WNW 9.2 mph - N/A   Clear
11:52 AM 73.9 °F 52.0 °F 46% 29.99 in 10.0 mi NNE 9.2 mph - N/A   Clear
12:52 PM 75.0 °F 52.0 °F 44% 29.97 in 10.0 mi NW 8.1 mph - N/A   Clear
1:52 PM 75.0 °F 53.1 °F 46% 29.97 in 10.0 mi NW 8.1 mph - N/A   Clear
2:52 PM 75.9 °F 52.0 °F 43% 29.96 in 10.0 mi North 8.1 mph - N/A   Scattered Clouds
3:52 PM 77.0 °F 52.0 °F 42% 29.98 in 10.0 mi NNW 6.9 mph - N/A   Partly Cloudy
4:52 PM 75.9 °F 54.0 °F 46% 29.98 in 10.0 mi NW 6.9 mph - N/A   Clear
5:52 PM 73.0 °F 55.9 °F 55% 29.98 in 10.0 mi North 4.6 mph - N/A   Clear
6:52 PM 70.0 °F 57.0 °F 63% 30.00 in 10.0 mi North 4.6 mph - N/A   Clear
7:52 PM 69.1 °F 55.0 °F 61% 30.01 in 10.0 mi North 3.5 mph - N/A   Clear
8:52 PM 64.0 °F 54.0 °F 70% 30.04 in 10.0 mi NNW 4.6 mph - N/A   Clear
9:52 PM 63.0 °F 52.0 °F 67% 30.04 in 10.0 mi North 3.5 mph - N/A   Clear
10:52 PM 60.1 °F 51.1 °F 72% 30.05 in 10.0 mi North 4.6 mph - N/A   Clear
11:52 PM 59.0 °F 50.0 °F 72% 30.08 in 10.0 mi North 4.6 mph - N/A   Clear